Nampa, ID

4:14 PM MST on November 12, 2019 (GMT -0700)
Nampa

Weather History for KMAN - August, 2019

Change the Weather History Date:

Thursday, August 22, 2019

  Actual Average (KBOI) Record (KBOI)
Temperature  
Mean Temperature 73 °F -  
Max Temperature 82 °F 87 °F 101 °F (1950)
Min Temperature 64 °F 56 °F 39 °F (1892)
Cooling Degree Days 8    
Growing Degree Days 23 (Base 50)    
Moisture  
Dew Point 48 °F    
Average Humidity 41    
Maximum Humidity 64    
Minimum Humidity 26    
Precipitation  
Precipitation 0.00 in - - ()
Sea Level Pressure  
Sea Level Pressure 29.90 in    
Wind  
Wind Speed 12 mph (NW)    
Max Wind Speed 20 mph    
Max Gust Speed 26 mph    
Visibility 10 miles    
Events      
Averages and records for this station are not official NWS values.
T = Trace of Precipitation, MM = Missing Value Source: NWS Daily Summary

Daily Weather History Graph

Daily Weather History Graph

Search for Another Location

Airport or City:

Astronomy

Aug. 22, 2019 Rise Set
Actual Time 6:58 AM MDT 8:38 PM MDT
Civil Twilight 6:28 AM MDT 9:08 PM MDT
Nautical Twilight 5:51 AM MDT 9:45 PM MDT
Astronomical Twilight 5:11 AM MDT 10:25 PM MDT
Moon No Moon Rise 1:50 PM MDT (8/22)
Length of Visible Light 14h 40m
Length of Day
13h 40m
Waning Gibbous, 59% of the Moon is Illuminated
Aug 22
Waning Gibbous
Aug 23
Last Quarter
Aug 30
New
Sep 5
First Quarter
Sep 13
Full

Hourly Weather History & Observations

Time (MDT) Temp. Dew Point Humidity Pressure Visibility Wind Dir Wind Speed Gust Speed Precip Events Conditions
12:15 AM 75.2 °F 46.4 °F 36% 29.88 in 10.0 mi NW 12.7 mph 19.6 mph N/A   Unknown
12:35 AM 75.2 °F 46.4 °F 36% 29.88 in 10.0 mi NW 15.0 mph 20.7 mph N/A   Mostly Cloudy
12:55 AM 75.2 °F 46.4 °F 36% 29.88 in 10.0 mi NW 12.7 mph - N/A   Partly Cloudy
1:15 AM 75.2 °F 46.4 °F 36% 29.89 in 10.0 mi NNW 9.2 mph 19.6 mph N/A   Unknown
1:35 AM 75.2 °F 46.4 °F 36% 29.88 in 10.0 mi NNW 9.2 mph 16.1 mph N/A   Unknown
1:55 AM 75.2 °F 46.4 °F 36% 29.86 in 10.0 mi NNW 10.4 mph - N/A   Clear
2:15 AM 75.2 °F 46.4 °F 36% 29.88 in 10.0 mi NW 9.2 mph - N/A   Unknown
2:35 AM 73.4 °F 46.4 °F 38% 29.85 in 10.0 mi NNW 11.5 mph - N/A   Unknown
3:15 AM 73.4 °F 48.2 °F 41% 29.84 in 10.0 mi NW 10.4 mph - N/A   Mostly Cloudy
3:35 AM 71.6 °F 48.2 °F 43% 29.86 in 10.0 mi WNW 10.4 mph - N/A   Scattered Clouds
3:55 AM 71.6 °F 48.2 °F 43% 29.86 in 10.0 mi NW 11.5 mph - N/A   Mostly Cloudy
4:15 AM 71.6 °F 48.2 °F 43% 29.86 in 10.0 mi NW 13.8 mph - N/A   Partly Cloudy
4:35 AM 69.8 °F 50.0 °F 49% 29.87 in 10.0 mi WNW 13.8 mph - N/A   Scattered Clouds
4:55 AM 68.0 °F 50.0 °F 52% 29.88 in 10.0 mi WNW 12.7 mph - N/A   Unknown
5:15 AM 66.2 °F 50.0 °F 56% 29.87 in 10.0 mi WNW 13.8 mph - N/A   Unknown
5:35 AM 66.2 °F 51.8 °F 60% 29.88 in 10.0 mi WNW 12.7 mph - N/A   Unknown
5:55 AM 64.4 °F 51.8 °F 64% 29.88 in 10.0 mi WNW 16.1 mph 23.0 mph N/A   Unknown
6:15 AM 64.4 °F 51.8 °F 64% 29.89 in 10.0 mi WNW 17.3 mph - N/A   Unknown
6:35 AM 64.4 °F 51.8 °F 64% 29.90 in 10.0 mi WNW 12.7 mph 19.6 mph N/A   Clear
6:55 AM 64.4 °F 50.0 °F 59% 29.90 in 10.0 mi WNW 11.5 mph 20.7 mph N/A   Clear
7:15 AM 64.4 °F 50.0 °F 59% 29.91 in 10.0 mi WNW 12.7 mph - N/A   Clear
7:35 AM 64.4 °F 50.0 °F 59% 29.91 in 10.0 mi West 8.1 mph 15.0 mph N/A   Clear
7:55 AM 64.4 °F 50.0 °F 59% 29.91 in 10.0 mi West 10.4 mph 19.6 mph N/A   Clear
8:15 AM 66.2 °F 50.0 °F 56% 29.92 in 10.0 mi West 12.7 mph - N/A   Clear
8:35 AM 66.2 °F 50.0 °F 56% 29.93 in 10.0 mi WNW 16.1 mph - N/A   Clear
8:55 AM 66.2 °F 50.0 °F 56% 29.94 in 10.0 mi WNW 12.7 mph 20.7 mph N/A   Clear
9:15 AM 68.0 °F 50.0 °F 52% 29.94 in 10.0 mi WNW 15.0 mph 26.5 mph N/A   Clear
9:35 AM 68.0 °F 50.0 °F 52% 29.95 in 10.0 mi WNW 17.3 mph 24.2 mph N/A   Clear
9:55 AM 69.8 °F 50.0 °F 49% 29.95 in 10.0 mi WNW 19.6 mph 25.3 mph N/A   Clear
10:15 AM 69.8 °F 50.0 °F 49% 29.95 in 10.0 mi NW 17.3 mph 24.2 mph N/A   Clear
10:35 AM 71.6 °F 51.8 °F 50% 29.95 in 10.0 mi WNW 12.7 mph 21.9 mph N/A   Clear
10:55 AM 71.6 °F 50.0 °F 46% 29.95 in 10.0 mi NW 15.0 mph 21.9 mph N/A   Clear
11:15 AM 71.6 °F 50.0 °F 46% 29.95 in 10.0 mi NW 13.8 mph 24.2 mph N/A   Clear
11:35 AM 73.4 °F 50.0 °F 44% 29.95 in 10.0 mi WNW 13.8 mph - N/A   Clear
11:55 AM 73.4 °F 50.0 °F 44% 29.94 in 10.0 mi NW 13.8 mph 19.6 mph N/A   Clear
12:15 PM 75.2 °F 51.8 °F 44% 29.94 in 10.0 mi WNW 15.0 mph - N/A   Partly Cloudy
12:35 PM 77.0 °F 50.0 °F 39% 29.93 in 10.0 mi NW 17.3 mph 24.2 mph N/A   Clear
12:55 PM 77.0 °F 50.0 °F 39% 29.93 in 10.0 mi West 13.8 mph 20.7 mph N/A   Partly Cloudy
1:15 PM 77.0 °F 48.2 °F 36% 29.93 in 10.0 mi WNW 15.0 mph 24.2 mph N/A   Partly Cloudy
1:35 PM 77.0 °F 48.2 °F 36% 29.93 in 10.0 mi NW 17.3 mph - N/A   Clear
1:55 PM 78.8 °F 48.2 °F 34% 29.92 in 10.0 mi NW 11.5 mph 23.0 mph N/A   Clear
2:15 PM 78.8 °F 48.2 °F 34% 29.92 in 10.0 mi NW 12.7 mph 19.6 mph N/A   Clear
2:35 PM 78.8 °F 48.2 °F 34% 29.92 in 10.0 mi NW 15.0 mph 21.9 mph N/A   Clear
2:55 PM 80.6 °F 48.2 °F 32% 29.91 in 10.0 mi NNW 12.7 mph 19.6 mph N/A   Clear
3:15 PM 80.6 °F 48.2 °F 32% 29.90 in 10.0 mi NW 13.8 mph 19.6 mph N/A   Clear
3:35 PM 80.6 °F 48.2 °F 32% 29.89 in 10.0 mi NNW 13.8 mph - N/A   Clear
3:55 PM 80.6 °F 48.2 °F 32% 29.89 in 10.0 mi NW 17.3 mph 23.0 mph N/A   Clear
4:15 PM 80.6 °F 46.4 °F 30% 29.88 in 10.0 mi NW 11.5 mph 21.9 mph N/A   Clear
4:35 PM 82.4 °F 46.4 °F 28% 29.88 in 10.0 mi NNW 11.5 mph 19.6 mph N/A   Clear
4:55 PM 82.4 °F 44.6 °F 26% 29.88 in 10.0 mi NW 15.0 mph 24.2 mph N/A   Clear
5:15 PM 82.4 °F 46.4 °F 28% 29.88 in 10.0 mi NNW 13.8 mph 20.7 mph N/A   Clear
5:35 PM 82.4 °F 46.4 °F 28% 29.87 in 10.0 mi NW 11.5 mph 18.4 mph N/A   Clear
5:55 PM 82.4 °F 46.4 °F 28% 29.87 in 10.0 mi WNW 16.1 mph 21.9 mph N/A   Clear
6:15 PM 82.4 °F 44.6 °F 26% 29.87 in 10.0 mi NW 13.8 mph - N/A   Clear
6:35 PM 82.4 °F 44.6 °F 26% 29.87 in 10.0 mi NW 13.8 mph 20.7 mph N/A   Clear
6:55 PM 82.4 °F 44.6 °F 26% 29.87 in 10.0 mi NW 13.8 mph 19.6 mph N/A   Clear
7:15 PM 82.4 °F 44.6 °F 26% 29.87 in 10.0 mi NW 10.4 mph 17.3 mph N/A   Clear
7:35 PM 80.6 °F 44.6 °F 28% 29.87 in 10.0 mi NW 11.5 mph 18.4 mph N/A   Clear
7:55 PM 80.6 °F 44.6 °F 28% 29.87 in 10.0 mi NNW 10.4 mph 16.1 mph N/A   Clear
8:35 PM 77.0 °F 44.6 °F 32% 29.88 in 10.0 mi NW 6.9 mph - N/A   Clear
8:55 PM 77.0 °F 44.6 °F 32% 29.88 in 10.0 mi NW 6.9 mph - N/A   Clear
9:15 PM 75.2 °F 44.6 °F 34% 29.89 in 10.0 mi NW 6.9 mph - N/A   Clear
9:35 PM 75.2 °F 44.6 °F 34% 29.89 in 10.0 mi NNW 6.9 mph - N/A   Clear
9:55 PM 75.2 °F 44.6 °F 34% 29.90 in 10.0 mi NNW 8.1 mph 15.0 mph N/A   Clear
10:15 PM 73.4 °F 42.8 °F 33% 29.90 in 10.0 mi NNW 8.1 mph - N/A   Clear
10:35 PM 73.4 °F 44.6 °F 36% 29.90 in 10.0 mi NNW 6.9 mph - N/A   Unknown
10:55 PM 71.6 °F 44.6 °F 38% 29.90 in 10.0 mi NNW 4.6 mph - N/A   Unknown
11:15 PM 69.8 °F 44.6 °F 40% 29.91 in 10.0 mi NNW 6.9 mph - N/A   Unknown
11:35 PM 69.8 °F 44.6 °F 40% 29.91 in 10.0 mi West 6.9 mph - N/A   Unknown
11:55 PM 71.6 °F 44.6 °F 38% 29.91 in 10.0 mi NW 8.1 mph 13.8 mph N/A   Unknown